www.pogodaiklimat.ru

Погода и климат >> Архив погоды >> Австралия >> Южная Австралия >> Таркула


ПОГОДА в Таркуле

  • Прогноз погоды в Таркуле
  • Монитор погоды в Таркуле

АРХИВ ПОГОДЫ в Таркуле

Время (UTC), дата Ветер
(напр.,м/с)
 
Видим.   Явления Облачность Т
(С)
Тd
(С)
f
(%)
Тe
(С)
Тes
(С)
Комфортность P
(гПа)
Po
(гПа)
Тmin
(С)
Tmax
(С)
R
(мм)
R24
(мм)
S
(см)
07 11.06 СВ 6 н/о н/о +24.1 +5.0 29 +24 +24 комфорт 1013.5 998.7
08 11.06 СВ 5 н/о н/о +22.8 +4.8 31 +23 +23 комфорт 1013.9 999.1
10 11.06 В 3 н/о н/о +20.2 +6.2 40 +21 +21 комфорт 1013.6 998.8
11 11.06 В 3 н/о н/о +20.8 +6.4 39 +22 +22 комфорт 1013.4 998.6
13 11.06 В 3 н/о н/о +20.5 +7.8 44 +22 +22 комфорт 1011.5 996.7
14 11.06 В 3 н/о н/о +19.8 +11.3 58 +22 +22 комфорт 1010.7 995.9 +24.5
16 11.06 ЮЗ 4 н/о н/о +15.8 +13.1 84 +15 +15 1013.5 998.7
17 11.06 Ю 2 н/о туман местами н/о +15.4 +13.6 89 +15 +15 1013.4 998.6 5
19 11.06 С 2 н/о н/о +15.6 +14.1 91 +16 +16 1014.3 999.5
20 11.06 З 3 н/о туман местами н/о +15.7 +14.2 91 +15 +15 1015.8 1000.9
22 11.06 З 4 н/о н/о +15.0 +13.0 88 +14 +14 1017.1 1002.2
23 11.06 СЗ 3 н/о в посл. час дождь {туман} н/о +14.9 +13.1 89 +14 +14 1017.5 1002.6 11
01 12.06 СЗ 3 н/о н/о +16.8 +11.9 73 +17 +17 1018.1 1003.2
02 12.06 СЗ 4 н/о н/о +17.7 +11.0 65 +17 +17 1018.1 1003.2 +14.8
04 12.06 З 6 н/о н/о +18.4 +9.2 55 +18 +18 1017.6 1002.7
05 12.06 З 6 н/о н/о +19.5 +8.2 48 +20 +20 1017.6 1002.7
07 12.06 З 5 н/о н/о +19.0 +6.2 43 +19 +19 1018.1 1003.2
08 12.06 З 4 н/о н/о +17.2 +6.7 50 +17 +17 1018.4 1003.5
10 12.06 З 3 н/о н/о +13.5 +7.9 69 +12 +12 1020.3 1005.4
11 12.06 З 3 н/о н/о +12.8 +7.5 70 +11 +11 1021.0 1006.1
13 12.06 Ю 1 н/о н/о +9.9 +7.2 83 +10 +10 1021.4 1006.5
14 12.06 штиль 0 н/о н/о +8.7 +6.7 87 +8 +8 1021.7 1006.8 +21.0
16 12.06 штиль 0 н/о н/о +7.0 +5.5 90 +6 +6 1021.5 1006.6
17 12.06 штиль 0 н/о н/о +6.1 +4.6 90 +5 +5 1021.7 1006.8
19 12.06 штиль 0 н/о н/о +5.1 +3.8 91 +4 +4 1021.8 1006.9
20 12.06 штиль 0 н/о н/о +5.1 +3.9 92 +4 +4 1021.5 1006.6
22 12.06 штиль 0 н/о н/о +4.9 +3.7 92 +4 +4 1022.4 1007.5
23 12.06 штиль 0 н/о н/о +7.0 +5.8 92 +6 +6 1023.5 1008.5
01 13.06 штиль 0 н/о н/о +13.1 +7.8 70 +13 +13 1024.5 1009.5
02 13.06 З 2 н/о н/о +15.5 +7.0 57 +15 +15 1024.0 1009.0 +4.6
04 13.06 З 4 н/о н/о +17.5 +4.5 42 +17 +17 1022.0 1007.1
05 13.06 З 5 н/о н/о +18.3 +3.0 36 +18 +18 1021.3 1006.4
07 13.06 ЮЗ 3 н/о н/о +17.4 +3.0 38 +17 +17 1021.3 1006.4
08 13.06 ЮЗ 2 н/о н/о +15.4 +4.8 49 +15 +15 1021.6 1006.7
10 13.06 штиль 0 н/о н/о +11.1 +8.0 81 +11 +11 1023.0 1008.0
11 13.06 штиль 0 н/о н/о +10.2 +7.6 84 +10 +10 1023.5 1008.5
13 13.06 В 2 н/о н/о +9.9 +7.8 87 +8 +8 1023.1 1008.1
14 13.06 СВ 2 н/о н/о +9.8 +7.4 85 +8 +8 1023.2 1008.2 +18.5
16 13.06 штиль 0 н/о н/о +8.2 +6.3 88 +7 +7 1022.9 1007.9
17 13.06 ЮЗ 2 н/о н/о +7.6 +5.9 89 +5 +5 1023.0 1008.0
19 13.06 штиль 0 н/о н/о +5.5 +4.0 90 +4 +4 1022.5 1007.6
20 13.06 штиль 0 н/о н/о +4.8 +3.3 90 +4 +4 1022.4 1007.5
22 13.06 СВ 2 н/о н/о +4.4 +3.2 92 +2 +2 1023.3 1008.3
23 13.06 З 2 н/о н/о +6.6 +5.2 91 +5 +5 1024.0 1009.0
01 14.06 штиль 0 н/о н/о +13.6 +7.6 67 +13 +13 1024.7 1009.7
02 14.06 СЗ 1 н/о н/о +16.0 +7.5 57 +17 +17 1024.4 1009.4 +4.1
04 14.06 СЗ 2 н/о н/о +18.9 +2.7 34 +20 +20 1022.3 1007.4
05 14.06 З 4 н/о н/о +17.9 +2.2 35 +18 +18 1021.9 1007.0
07 14.06 ЮЗ 3 н/о н/о +17.4 +3.0 38 +17 +17 1021.8 1006.9
08 14.06 Ю 2 н/о н/о +16.0 +4.1 45 +16 +16 1021.9 1007.0
10 14.06 штиль 0 н/о н/о +11.8 +7.5 75 +11 +11 1022.9 1007.9
11 14.06 В 2 н/о н/о +9.8 +6.2 78 +9 +9 1023.3 1008.3
13 14.06 штиль 0 н/о н/о +7.3 +5.4 88 +6 +6 1023.5 1008.5
14 14.06 штиль 0 н/о н/о +6.9 +5.1 88 +6 +6 1023.4 1008.4 +19.2
16 14.06 штиль 0 н/о н/о +5.1 +3.6 90 +4 +4 1023.1 1008.1
17 14.06 штиль 0 н/о н/о +4.5 +3.0 90 +3 +3 1022.9 1007.9
19 14.06 штиль 0 н/о н/о +3.5 +2.2 91 +2 +2 1022.1 1007.2
20 14.06 штиль 0 н/о н/о +3.0 +1.7 91 +2 +2 1022.0 1007.1
22 14.06 С 3 н/о н/о +2.6 +1.3 91 -1 -1 1023.2 1008.2
23 14.06 В 1 н/о н/о +6.4 +4.9 90 +5 +5 1023.7 1008.7
01 15.06 С 2 н/о н/о +14.2 +5.3 55 +14 +14 1024.2 1009.2
02 15.06 С 5 н/о н/о +16.8 +4.8 45 +16 +16 1024.2 1009.2 +2.5
04 15.06 СЗ 5 н/о н/о +18.6 +1.6 32 +18 +18 1021.9 1007.0
05 15.06 СЗ 4 н/о н/о +18.4 +1.4 32 +18 +18 1020.9 1006.0
07 15.06 СЗ 3 н/о н/о +18.2 +0.8 31 +18 +18 1020.3 1005.4
08 15.06 З 3 н/о н/о +16.9 +1.4 35 +17 +17 1020.6 1005.7
10 15.06 З 4 н/о н/о +10.4 +3.7 63 +8 +8 1021.9 1007.0
11 15.06 З 2 н/о н/о +9.5 +3.7 67 +9 +9 1022.3 1007.4
13 15.06 СВ 2 н/о н/о +6.9 +4.0 82 +5 +5 1022.7 1007.7
14 15.06 штиль 0 н/о н/о +5.9 +3.2 83 +5 +5 1022.8 1007.8 +19.4
16 15.06 СВ 4 н/о н/о +5.4 +3.4 87 +2 +2 1021.6 1006.7
17 15.06 С 2 н/о н/о +5.1 +2.6 84 +3 +3 1021.4 1006.5
19 15.06 В 2 н/о н/о +7.1 +3.7 79 +5 +5 1021.6 1006.7
20 15.06 З 3 н/о н/о +8.7 +3.5 70 +7 +7 1022.1 1007.2
22 15.06 СЗ 3 н/о н/о +9.1 +3.7 69 +7 +7 1023.2 1008.2
23 15.06 З 2 н/о н/о +9.4 +4.2 70 +8 +8 1023.8 1008.8
01 16.06 З 4 н/о н/о +13.8 +7.3 65 +12 +12 1024.7 1009.7
02 16.06 ЮЗ 4 н/о н/о +15.4 +7.2 58 +15 +15 1024.4 1009.4 +5.1
04 16.06 З 5 н/о н/о +17.5 +6.4 48 +17 +17 1023.4 1008.4
05 16.06 З 5 н/о н/о +18.3 +4.5 40 +18 +18 1023.0 1008.0
07 16.06 ЮЗ 4 н/о н/о +17.5 +4.5 42 +17 +17 1022.7 1007.7
08 16.06 Ю 3 н/о н/о +15.4 +3.9 46 +15 +15 1023.3 1008.3
10 16.06 штиль 0 н/о н/о +10.2 +5.0 70 +10 +10 1024.1 1009.1
11 16.06 ЮВ 2 н/о н/о +8.8 +5.0 77 +7 +7 1024.6 1009.6
13 16.06 ЮЗ 2 н/о н/о +7.2 +4.5 83 +5 +5 1025.3 1010.3
14 16.06 ЮЗ 2 н/о н/о +7.6 +5.4 86 +5 +5 1025.3 1010.3 +18.6
16 16.06 З 1 н/о н/о +9.3 +6.6 83 +9 +9 1025.0 1010.0
17 16.06 штиль 0 н/о н/о +9.4 +6.7 83 +9 +9 1024.5 1009.5
19 16.06 З 1 н/о н/о +9.7 +7.0 83 +9 +9 1024.6 1009.6
20 16.06 штиль 0 н/о н/о +9.7 +7.0 83 +9 +9 1024.4 1009.4
22 16.06 штиль 0 н/о н/о +9.9 +7.3 84 +9 +9 1025.2 1010.2
23 16.06 штиль 0 н/о н/о +10.3 +7.7 84 +10 +10 1025.5 1010.5
01 17.06 С 3 н/о н/о +13.5 +7.9 69 +13 +13 1026.0 1011.0
02 17.06 С 5 н/о н/о +14.9 +7.2 60 +14 +14 1025.4 1010.4 +7.1
04 17.06 С 5 н/о н/о +16.7 +4.1 43 +16 +16 1023.8 1008.8
05 17.06 СЗ 5 н/о н/о +16.9 +2.9 39 +16 +16 1023.3 1008.3
07 17.06 З 6 н/о н/о +16.5 +2.5 39 +16 +16 1023.3 1008.3
08 17.06 З 5 н/о н/о +16.2 +2.2 39 +15 +15 1023.4 1008.4
10 17.06 СЗ 3 н/о н/о +13.1 +3.7 53 +12 +12 1023.8 1008.8
11 17.06 СЗ 4 н/о н/о +12.0 +3.8 57 +10 +10 1024.2 1009.2
13 17.06 З 4 н/о н/о +13.3 +3.9 53 +12 +12 1024.3 1009.3
14 17.06 ЮЗ 5 н/о н/о +13.4 +5.1 57 +12 +12 1024.6 1009.6 +17.9
16 17.06 ЮЗ 4 н/о н/о +11.8 +9.9 88 +10 +10 1024.9 1009.9
17 17.06 ЮЗ 4 н/о {туман} н/о +11.2 +9.6 90 +9 +9 1025.3 1010.3 0.2
19 17.06 ЮЗ 3 н/о н/о +9.4 +8.2 92 +7 +7 1025.7 1010.7
20 17.06 ЮЗ 3 н/о н/о +8.4 +7.2 92 +6 +6 1025.8 1010.8
22 17.06 ЮЗ 2 н/о н/о +6.1 +4.9 92 +4 +4 1027.6 1012.6
23 17.06 ЮЗ 2 н/о {туман} н/о +8.4 +7.3 93 +6 +6 1028.1 1013.1 0.4
01 18.06 ЮЗ 3 н/о н/о +11.2 +8.1 81 +10 +10 1029.2 1014.2
02 18.06 ЮЗ 4 н/о н/о +13.2 +7.9 70 +12 +12 1028.9 1013.9 +5.8
04 18.06 Ю 3 н/о н/о +14.1 +3.0 47 +14 +14 1027.1 1012.1
05 18.06 ЮЗ 3 н/о н/о +14.2 +3.4 48 +13 +13 1026.9 1011.9
07 18.06 ЮЗ 3 н/о н/о +14.3 +2.5 45 +14 +14 1026.7 1011.7

 

Местоположение метеостанции Таркула (Южная Австралия, Австралия): широта -30.72 долгота 134.58 высота над уровнем моря 124 м.

В архиве по умолчанию представлена погода в Таркуле за последнюю неделю. Архивные данные за месяц целиком и за предыдущие месяцы, начиная с января 2011 года, Вы можете получить, выбрав интересующий диапазон дат из раскрывающегося списка и нажав кнопку "Ввод!".


*Определитесь, кто Вы:
робот инопланетянин человек

Внимание! Время в таблицах - всемирное. Для получения местного времени необходимо прибавить поправку, которая равна 9.5 ч.

Смотрите также архив погоды в соседних городах и на ближайших метеорологических станциях:

Погода в Сидуне (Южная Австралия, Австралия) (178 км)
Погода в Кубер-Педи (Южная Австралия, Австралия) (188 км)
Погода на Аэродроме Вумера (Южная Австралия, Австралия) (218 км)
Погода в Олимпик Дэм (Южная Австралия, Австралия) (222 км)
Погода в Миннипа Пирса (Южная Австралия, Австралия) (243 км)
Погода в Уудинне (Южная Австралия, Австралия) (272 км)
Погода в Марри (Южная Австралия, Австралия) (355 км)
Погода в Порт Огаста (Южная Австралия, Австралия) (358 км)
Погода в Наллаборе (Южная Австралия, Австралия) (360 км)
Погода в Однадатте (Южная Австралия, Австралия) (363 км)

Пояснения к столбцам:

Ветер - указаны скорость ветра в м/с - средняя за 10 мин, порывы в срок и между сроками (в фигурных скобках) и направление, откуда дует ветер: С - северный, СВ - северо-восточный, В - восточный, ЮВ - юго-восточный, Ю - южный, ЮЗ - юго-западный, З - западный, СЗ - северо-западный.
Видимость - горизонтальная дальность видимости в метрах или километрах. При видимости от 1 до 10 км при отсутствии осадков обычно наблюдается дымка, при ухудшении видимости до 1 км и менее - туман. В сухую погоду видимость может ухудшаться дымом, пылью или мглою.
Явления - указаны атмосферные явления, наблюдавшиеся в срок или в последний час перед сроком; фигурными скобками обозначены явления, наблюдавшиеся между сроками (за 1-3 часа до срока); квадратными скобками обозначены град или гололедные отложения с указанием их диаметра в мм.
Облачность - указаны через наклонную черту общая и нижняя облачность в баллах и высота нижней границы облаков в метрах; квадратными скобками обозначены формы облаков: Ci - перистые, Cs - перисто-слоистые, Cc - перисто-кучевые, Ac - высококучевые, As - высокослоистые, Sc - слоисто-кучевые, Ns - слоисто-дождевые, Cu - кучевые, Cb - кучево-дождевые. Подробнее классификацию облаков см. в Атласе облаков (PDF).
T - Температура воздуха - температура, измеренная на высоте 2 м над землей.
Td - Температура точки росы - температура, при понижении до которой содержащийся в воздухе водяной пар достигнет насыщения.
f - Относительная влажность воздуха - влажноcть воздуха, измеренная на высоте 2 м над землей.
Te - Эффективная температура - температура, которую ощущает одетый по сезону человек в тени. Характеристика душности погоды. При расчете учитывается влияние влажности воздуха и скорости ветра на теплоощущения человека.
Tes - Эффективная температура на солнце - температура, которую ощущает человек, с поправкой на солнечный нагрев. Характеристика знойности погоды. Зависит от высоты солнца над горизонтом, облачности и скорости ветра. Ночью, в пасмурную погоду, а также при ветре 12 м/с и более поправка равна нулю.
P - Атмосферное давление - приведенное к уровню моря атмосферное давление.
Po - Атмосферное давление - измеренное на уровне метеостанции атмосферное давление.
Tmin - Минимальная температура - минимум температуры воздуха на высоте 2 м над землей.
Tmax - Максимальная температура - максимум температуры воздуха на высоте 2 м над землей.
R - Количество осадков - Количество выпавших осадков за период времени, мм. При наведении курсора мыши на число - период времени, за который выпало указанное количество осадков.
R24 - Количество осадков - Количество выпавших осадков за 24 часа, мм.
S - Снежный покров - Высота снежного покрова, см. При наведении курсора мыши на число - состояние снежного покрова и степень покрытия местности в баллах.